PROMETHEUS 2-3

Last updated on Mon Sep 15 2025 00:03:49 GMT+0000 (Coordinated Universal Time)

1 41855U 16067H 25257.07882014 .00071712 00000+0 91217-3 0 9994 2 41855 98.0523 121.4429 0002248 239.7039 120.3994 15.59133836485384
UTC large
Height (km)
Speed (km/s)
/
Latitude / Longitude
Inclination (degrees)
Orbital Period (minutes)
Azimuth
Elevation
Range (km)
Doppler Factor

Next 0 passes for location: London (51.5072 / 0.1276)

Sorry there are no passes over London.